This demonstration page uses our WeatherBlox Daily Observations layout. Learn more.

Left ArrowRight Arrow

41.12389, -100.76542

Hourly Observations for September 29, 2020

Temp ( °F °C ) Dew Point ( °F °C ) Humidity (%) Winds ( mph kmh ) Pressure ( in mb ) Visibility ( mi km ) Precip ( " mm )
12:53 am 00:53 Clear 36 2.2 26 -3.3 67 67 NW 6 9 30.18 1022 10 16 0.00 0.00
1:53 am 01:53 Clear 36 2.2 27 -2.8 70 70 WNW 5 7 30.17 1022 10 16 0.00 0.00
2:53 am 02:53 Clear 32 0 26 -3.3 79 79 NW 7 11 30.17 1022 10 16 0.00 0.00
3:53 am 03:53 Clear 32 0 26 -3.3 79 79 WNW 5 7 30.15 1021 10 16 0.00 0.00
4:53 am 04:53 Clear 32 0 26 -3.3 79 79 NW 5 7 30.15 1021 10 16 0.00 0.00
5:53 am 05:53 Clear 31 -0.6 25 -3.9 79 79 NW 5 7 30.14 1021 10 16 0.00 0.00
6:53 am 06:53 Clear 31 -0.6 25 -3.9 79 79 WNW 5 7 30.13 1020 10 16 0.00 0.00
7:53 am 07:53 Sunny 32 0 27 -2.8 82 82 WNW 6 9 30.13 1020 10 16 0.00 0.00
8:53 am 08:53 Sunny 39 3.9 30 -1.1 70 70 WNW 6 9 30.14 1021 10 16 0.00 0.00
9:53 am 09:53 Sunny 51 10.6 29 -1.7 43 43 W 10 17 30.12 1020 10 16 0.00 0.00
10:53 am 10:53 Sunny 58 14.4 29 -1.7 33 33 W 13 20 30.10 1019 10 16 0.00 0.00
11:53 am 11:53 Sunny 66 18.9 30 -1.1 26 26 W 8 13 30.06 1018 10 16 0.00 0.00
12:53 pm 12:53 Sunny 75 23.9 32 0 21 21 WSW 7 11 30.02 1017 10 16 0.00 0.00
1:53 pm 13:53 Sunny 82 27.8 36 2.2 19 19 WNW 17 28 29.99 1016 10 16 0.00 0.00
2:53 pm 14:53 Sunny 83 28.3 37 2.8 19 19 NNW 13 20 29.96 1015 10 16 0.00 0.00
3:53 pm 15:53 Sunny 85 29.4 38 3.3 19 19 NW 17 28 29.94 1014 10 16 0.00 0.00
4:53 pm 16:53 Sunny 84 28.9 38 3.3 19 19 NW 15 24 29.93 1014 10 16 0.00 0.00
5:53 pm 17:53 Sunny 83 28.3 38 3.3 20 20 WNW 12 19 29.93 1013 10 16 0.00 0.00
6:53 pm 18:53 Sunny 78 25.6 38 3.3 24 24 NNW 8 13 29.93 1014 10 16 0.00 0.00
7:53 pm 19:53 Clear 67 19.4 38 3.3 35 35 NW 3 6 29.95 1014 10 16 0.00 0.00
8:53 pm 20:53 Clear 58 14.4 39 3.9 50 50 Calm 29.96 1014 10 16 0.00 0.00
9:53 pm 21:53 Clear 52 11.1 37 2.8 57 57 Calm 29.94 1014 10 16 0.00 0.00
10:53 pm 22:53 Clear 47 8.3 38 3.3 71 71 NW 5 7 29.94 1014 10 16 0.00 0.00
11:53 pm 23:53 Clear 48 8.9 37 2.8 66 66 NW 7 11 29.92 1013 10 16 0.00 0.00

Powered by AerisWeather